SCP
0 0 0 0 0 0 0 0 0 0 0 0 0 0 0 0 0 0 0 0 0 0 0 0 0 0 0 0 0 0 0 0 0 0 0 0 0 0 0 0 0 0 0
0 0 0 0 0 0 0 0 0 0 0 0 0 0 0 0 0 0 0 0 0 0 0 0 0 0 0 0 0 0 0 0 0 0 0 0 0 0 0 0 0 0 0
0 0 0 0 0 0 0 0 0 0 0 0 0 0 0 0 0 0 0 0 0 0 0 0 0 0 0 0 0 0 0 0 0 0 0 0 0 0 0 0 0 0 0
0 0 0 0 0 0 0 0 0 0 0 0 0 0 0 0 0 0 0 0 0 0 0 0 0 0 0 0 0 0 0 0 0 0 0 0 0 0 0 0 0 0 0
0 0 0 0 0 0 0 0 0 0 0 0 0 0 0 0 0 0 0 0 0 0 0 0 0 0 0 0 0 0 0 0 0 0 0 0 0 0 0 0 0 0 0
0 0 0 0 0 0 0 0 0 0 0 0 0 0 0 0 0 0 0 0 0 0 0 0 0 0 0 0 0 0 0 0 0 0 0 0 0 0 0 0 0 0 0
0 0 1 1 1 0 0 0 0 0 0 0 0 0 0 0 0 0 0 0 0 0 0 0 0 0 0 0 0 0 0 0 0 0 0 0 0 0 0 0 0 0 0
1 1 1 1 1 1 0 0 0 0 0 0 0 0 0 0 0 0 0 0 0 0 0 0 0 0 0 0 0 0 0 0 0 0 0 0 0 0 0 0 0 0 0
1 1 1 1 1 1 0 0 0 0 0 0 0 0 0 0 0 0 0 0 0 0 0 0 0 0 0 0 0 0 0 0 0 0 0 0 0 0 0 0 0 0 0
1 1 1 1 1 1 0 0 0 0 0 0 0 0 0 0 0 0 0 0 0 0 0 0 0 0 0 0 0 0 0 0 0 0 0 0 0 0 0 0 0 0 0
1 1 1 1 1 1 0 0 0 0 0 0 0 0 0 0 0 0 0 0 0 0 0 0 0 0 0 0 0 0 0 0 0 0 0 0 0 0 0 0 0 0 0
1 1 1 1 1 1 0 0 0 0 0 0 0 0 0 0 0 0 0 0 0 0 0 0 0 0 0 0 0 0 0 0 0 0 0 0 0 0 0 0 0 0 0
1 1 1 1 1 1 0 1 1 1 1 0 0 0 0 0 0 0 0 0 0 0 0 0 0 0 0 0 0 0 0 0 0 0 0 0 0 0 0 0 0 0 0
1 1 1 1 1 1 1 1 1 1 1 1 0 0 0 0 0 0 0 0 0 0 0 0 0 0 0 0 0 0 0 0 0 0 0 0 0 0 0 0 0 0 0
1 1 1 1 1 1 1 1 1 1 1 0 0 0 0 0 0 0 0 0 0 0 0 0 0 0 0 0 0 0 0 0 0 0 0 0 0 0 0 0 0 0 0
1 1 1 1 1 1 1 1 1 1 0 0 0 0 0 0 0 0 0 0 0 0 0 0 0 0 0 0 0 0 0 0 0 0 0 0 0 0 0 0 0 0 0
1 1 1 1 1 1 1 1 1 0 0 0 0 0 0 0 0 0 0 0 0 0 0 0 0 0 0 0 0 0 0 0 0 0 0 0 0 0 0 0 0 0 0
1 1 1 1 1 1 1 1 0 0 0 0 0 0 0 0 0 0 0 0 0 0 0 0 0 0 0 0 0 0 0 0 0 0 0 0 0 0 0 0 0 0 0
1 1 1 1 1 1 1 1 1 0 0 0 0 0 0 0 0 0 0 0 0 0 0 0 0 0 0 0 0 0 0 0 0 0 0 0 0 0 0 0 0 0 0
1 1 1 1 1 1 1 1 1 0 0 0 0 0 0 0 0 0 0 0 0 0 0 0 0 0 0 0 0 0 0 0 0 0 0 0 0 0 0 0 0 0 0
1 1 1 1 1 1 0 0 0 0 0 0 0 0 0 0 0 0 0 0 0 0 0 0 0 0 0 0 0 0 0 0 0 0 0 0 0 0 0 0 0 0 0
1 1 1 1 0 0 0 0 0 0 0 0 0 0 0 0 0 0 0 0 0 0 0 0 0 0 0 0 0 0 0 0 0 0 0 0 0 0 0 0 0 0 0
1 1 1 1 0 0 0 0 0 0 0 0 0 0 0 0 0 0 0 0 0 0 0 0 0 0 0 0 0 0 0 0 0 0 0 0 0 0 0 0 0 0 0
1 1 1 0 0 0 0 0 0 0 0 0 0 0 0 0 0 0 0 0 0 0 0 0 0 0 0 0 0 0 0 0 0 0 0 0 0 0 0 0 0 0 0
1 1 0 0 0 0 0 0 0 0 0 0 0 0 0 0 0 0 0 0 0 0 0 0 0 0 0 0 0 0 0 0 0 0 0 0 0 0 0 0 0 0 0
1 1 0 0 0 0 0 0 0 0 0 0 0 0 0 0 0 0 0 0 0 0 0 0 0 0 0 0 0 0 0 0 0 0 0 0 0 0 0 0 0 0 0
Wind_Speed
0 0 0 1 1 1 2 1 1 1 1 1 1 1 2 2 2 3 5 10 10 9 9 8 8 7 7 6 5 4 3 4 4 5 6 7 7 6 6 6 7 7 8
1 0 0 0 1 1 1 1 1 1 0 1 1 1 2 1 2 3 4 7 10 9 9 8 8 7 6 6 5 5 4 3 3 4 6 7 7 7 7 6 7 7 8
0 0 0 0 0 1 1 1 1 1 1 1 1 1 1 1 1 2 3 3 5 9 9 8 8 7 7 6 6 5 4 3 3 4 4 6 6 6 6 6 7 7 7
0 0 0 0 0 0 1 1 1 1 0 1 1 0 1 1 2 2 2 2 3 4 7 9 8 7 7 7 6 6 5 4 4 4 4 4 5 5 5 6 7 7 7
0 0 0 1 1 1 1 1 1 1 1 1 1 1 1 1 2 2 2 2 3 3 4 8 9 8 8 7 6 6 6 5 5 4 4 4 5 5 5 5 6 7 7
1 0 1 1 1 1 0 0 1 1 1 1 1 0 0 1 2 2 2 2 3 4 4 4 5 6 8 7 6 5 5 5 5 4 4 4 5 6 6 6 6 6 6
1 0 0 1 1 1 1 1 0 1 1 1 1 0 1 2 2 1 2 2 2 3 3 3 3 3 4 6 6 5 5 5 5 5 4 4 4 5 6 7 7 6 7
1 1 1 1 1 1 1 1 1 1 1 1 1 1 0 1 1 2 2 2 3 2 3 4 3 3 4 4 4 6 5 5 5 5 5 4 4 4 5 6 6 6 6
1 0 1 1 1 1 1 1 1 1 1 1 1 1 1 1 0 1 2 2 2 2 2 2 3 3 4 3 4 6 6 5 5 5 4 3 3 4 4 5 5 6 5
2 2 1 1 1 1 1 2 1 1 1 1 1 1 1 1 1 0 1 1 2 2 2 2 2 3 3 3 4 6 6 6 5 4 3 3 3 3 4 5 5 5 4
2 2 2 1 1 1 1 1 1 1 1 1 1 1 1 1 2 1 1 1 1 1 2 1 1 2 3 4 3 5 6 6 5 3 3 2 2 3 4 4 4 5 5
2 1 2 1 1 1 1 1 1 1 1 1 1 1 1 1 1 1 2 2 2 2 2 1 2 2 2 3 4 7 7 6 6 4 4 3 3 3 3 4 4 4 4
2 2 1 1 1 1 1 1 1 1 1 1 2 1 1 1 1 1 1 1 1 1 1 1 1 2 2 4 4 8 6 6 6 5 4 3 3 3 3 3 3 3 3
2 2 2 2 2 1 1 1 0 1 0 1 2 2 1 1 1 1 1 1 1 1 1 2 1 2 1 3 5 7 5 7 6 6 5 4 4 3 3 3 2 3 3
2 2 2 2 2 1 1 1 1 0 0 0 1 1 1 1 1 1 1 1 1 1 1 1 1 1 1 2 5 4 4 7 7 7 7 6 5 4 4 3 3 3 3
1 2 2 2 2 2 2 2 1 1 1 0 0 1 1 2 1 1 0 0 0 1 1 1 1 1 1 1 4 2 3 8 8 8 7 7 6 5 4 4 4 4 3
2 2 2 2 2 2 1 1 1 1 1 1 1 1 1 1 2 2 2 1 1 1 1 0 1 2 1 1 2 1 2 4 4 8 8 8 7 6 5 5 5 4 4
2 2 2 2 2 2 2 1 1 1 1 1 0 1 1 1 2 2 1 1 1 1 1 1 1 2 2 2 2 2 2 3 3 7 9 8 7 7 6 5 5 4 4
2 2 2 2 2 2 2 2 1 1 2 1 1 1 2 2 2 2 1 1 1 1 1 1 1 1 2 2 1 1 1 1 2 5 7 7 7 6 6 5 5 5 4
2 2 2 2 2 2 1 1 1 1 2 2 2 2 2 3 2 2 2 2 2 1 0 1 1 1 1 1 1 0 0 1 1 2 4 5 6 6 6 6 6 6 6
2 2 2 1 1 2 2 1 0 2 1 2 2 3 4 5 6 4 3 2 2 2 1 1 1 1 1 1 0 0 0 0 1 1 2 2 4 3 4 6 7 7 7
2 2 3 3 2 2 2 3 2 1 2 2 2 2 3 4 4 4 5 5 3 2 2 2 1 1 1 1 0 1 0 0 1 0 1 1 2 2 3 4 8 9 9
2 1 2 3 3 3 3 3 3 1 1 2 2 1 1 3 2 1 1 2 3 4 3 2 1 1 0 0 0 1 1 1 1 1 1 1 1 1 2 3 9 10 9
2 2 1 2 3 3 3 2 1 1 1 2 2 2 2 2 2 2 0 1 1 1 0 1 1 0 0 1 1 2 3 2 1 1 1 1 1 2 2 2 8 10 10
2 2 2 3 3 2 3 3 2 1 2 2 2 2 2 2 2 2 1 1 1 1 1 1 1 1 2 2 1 1 1 1 1 1 0 1 1 1 1 2 4 9 9
2 2 3 3 4 3 3 3 1 1 1 1 2 2 3 3 3 1 0 0 0 1 1 1 1 2 2 2 2 2 1 1 1 1 0 0 0 1 1 1 1 3 4
Wind_Direction
261 19 111 144 185 165 173 176 170 136 159 190 131 116 90 77 122 120 135 148 149 148 153 159 163 167 172 169 168 165 162 173 186 187 189 192 191 192 193 192 195 192 188
74 28 294 211 186 165 152 152 162 145 152 112 127 111 112 115 105 119 139 154 158 158 160 163 170 176 177 174 171 165 165 165 167 181 193 197 195 196 196 193 195 196 195
108 200 227 222 200 148 145 146 158 177 189 171 147 139 140 135 137 138 149 160 164 169 170 171 174 178 180 178 175 172 173 173 167 167 182 193 194 196 194 195 195 197 197
210 230 207 156 119 139 146 152 181 183 156 125 130 171 135 154 161 172 172 178 173 168 173 177 178 179 181 182 182 179 179 177 176 176 176 182 191 191 193 201 203 203 201
164 207 89 69 82 105 127 192 146 159 165 159 181 181 192 176 184 176 180 181 167 167 163 175 181 181 183 183 184 180 180 183 185 191 193 192 188 187 191 197 201 199 197
171 171 136 100 70 76 75 47 107 149 167 178 204 144 225 210 183 172 182 164 169 173 172 169 176 187 185 180 177 177 181 184 185 189 201 209 207 204 204 203 202 199 198
143 177 132 116 121 112 120 102 110 158 183 153 123 276 242 215 181 173 178 173 166 164 165 167 163 166 176 181 181 185 192 194 195 195 205 212 209 206 206 203 205 198 194
171 191 135 138 147 135 151 158 159 187 220 167 161 186 221 225 237 203 181 179 175 171 177 180 170 180 172 169 178 190 198 201 202 203 210 203 197 195 192 194 196 194 196
159 155 128 151 159 164 170 168 174 215 221 197 190 196 195 201 216 210 205 172 166 176 177 176 181 181 173 154 166 191 194 194 197 206 206 200 192 184 186 190 190 188 190
167 171 152 161 157 161 173 199 154 231 245 236 225 236 221 197 195 195 257 184 178 176 186 203 166 176 162 149 147 157 175 182 188 198 198 191 187 191 189 185 188 191 192
170 158 159 160 168 175 181 207 175 223 248 273 260 258 233 224 226 200 231 218 200 190 178 187 161 154 153 149 145 146 157 166 170 168 160 157 180 191 187 185 190 193 203
156 153 171 173 179 191 197 200 210 218 253 293 288 263 234 229 243 221 219 211 198 200 178 172 176 165 151 133 143 142 152 160 164 163 157 160 165 173 179 187 198 204 214
158 174 176 169 180 192 191 175 197 221 248 286 284 284 257 244 242 240 219 225 211 181 163 151 147 135 147 122 130 143 152 157 160 161 161 162 169 177 184 194 205 211 218
172 159 165 162 162 172 178 145 178 221 194 267 273 281 277 280 262 239 218 192 206 200 166 159 142 138 117 127 144 152 158 165 163 161 163 161 163 170 181 192 195 203 208
157 144 163 153 158 140 134 134 155 190 190 272 312 308 303 317 310 282 221 191 177 197 203 146 126 138 148 139 149 163 155 167 164 168 172 172 175 178 183 189 187 185 194
123 137 149 152 145 142 150 151 154 145 119 31 333 354 347 333 337 316 333 280 162 156 173 146 132 119 115 127 149 165 155 161 174 178 181 182 184 187 186 187 187 185 191
135 143 149 150 152 152 149 151 160 146 122 58 9 31 9 338 360 4 10 2 47 96 141 126 120 131 126 100 132 165 158 171 179 187 184 184 186 189 189 189 189 194 201
154 153 156 160 164 155 155 164 175 142 130 119 54 41 22 26 27 28 20 357 29 76 123 156 159 158 171 175 171 184 200 193 174 179 181 181 183 185 190 194 194 195 196
157 156 161 166 166 161 158 171 155 140 134 127 100 58 39 38 28 31 17 16 359 56 115 167 192 180 181 169 170 215 199 206 193 159 172 179 183 183 189 194 191 188 193
157 154 153 150 148 145 134 128 137 146 134 120 102 78 59 49 37 20 34 15 3 23 137 180 184 159 143 148 142 167 239 215 212 158 159 165 172 181 190 192 195 198 199
155 141 144 134 140 119 85 55 300 136 112 102 98 89 83 74 62 54 48 30 34 31 27 35 91 83 86 82 97 319 353 302 295 151 136 165 160 178 195 203 204 204 202
133 142 144 133 106 86 71 65 42 58 103 101 89 98 124 106 90 79 65 58 61 68 47 43 31 53 62 76 61 308 267 301 262 176 122 209 174 187 195 191 194 195 199
127 123 135 119 113 90 81 69 43 48 108 121 105 86 85 95 99 98 118 88 68 71 85 98 57 18 307 272 210 261 264 253 255 225 188 240 217 212 210 188 182 188 193
134 144 145 126 119 103 107 96 32 152 115 115 113 102 104 89 68 19 350 93 108 86 63 117 92 305 330 308 255 242 252 244 258 261 195 222 223 228 220 175 187 190 195
156 170 161 140 128 122 124 115 85 171 141 136 127 106 109 107 82 37 21 66 82 33 48 77 224 241 267 275 284 305 292 263 272 245 239 205 234 245 227 197 189 197 201
177 173 160 155 149 143 140 135 119 202 145 147 147 134 116 109 117 92 340 341 350 316 322 292 272 261 247 236 229 228 249 261 298 303 335 7 294 308 291 240 170 189 211